Time,TemperatureF,DewpointF,PressureIn,WindDirection,WindDirectionDegrees,WindSpeedMPH,WindSpeedGustMPH,Humidity,HourlyPrecipIn,Conditions,Clouds,dailyrainin,SoftwareType,DateUTC
2013-10-11 00:01:00,49.5,47.0,29.98,ESE,113,0.0,0.0,91,0.00,,---,0.00,VWS V14.01,2013-10-11 05:01:00,
2013-10-11 00:06:00,49.7,46.9,29.98,ESE,111,0.0,0.0,90,0.00,,---,0.00,VWS V14.01,2013-10-11 05:06:00,
2013-10-11 00:11:00,49.7,46.9,29.98,ESE,116,0.0,0.0,90,0.00,,---,0.00,VWS V14.01,2013-10-11 05:11:00,
2013-10-11 00:16:00,49.4,46.6,29.97,ESE,116,0.0,0.0,90,0.00,,---,0.00,VWS V14.01,2013-10-11 05:16:00,
2013-10-11 00:21:00,49.1,46.3,29.97,ESE,115,0.0,0.0,90,0.00,,---,0.00,VWS V14.01,2013-10-11 05:21:00,
2013-10-11 00:26:00,48.8,46.3,29.97,ESE,115,0.0,0.0,91,0.00,,---,0.00,VWS V14.01,2013-10-11 05:26:00,
2013-10-11 00:31:00,48.9,46.7,29.97,ESE,113,0.0,0.0,92,0.00,,---,0.00,VWS V14.01,2013-10-11 05:31:00,
2013-10-11 00:36:00,49.1,46.6,29.97,ESE,112,0.0,0.0,91,0.00,,---,0.00,VWS V14.01,2013-10-11 05:36:00,
2013-10-11 00:41:00,48.7,45.9,29.97,ESE,112,0.0,0.0,90,0.00,,---,0.00,VWS V14.01,2013-10-11 05:41:00,
2013-10-11 00:46:00,48.1,45.3,29.97,ESE,113,0.0,0.0,90,0.00,,---,0.00,VWS V14.01,2013-10-11 05:46:00,
2013-10-11 00:51:00,47.8,45.6,29.97,ESE,113,0.0,0.0,92,0.00,,---,0.00,VWS V14.01,2013-10-11 05:51:00,
2013-10-11 00:56:00,47.6,45.4,29.97,ESE,112,0.0,0.0,92,0.00,,---,0.00,VWS V14.01,2013-10-11 05:56:00,
2013-10-11 01:01:00,47.2,45.0,29.97,ESE,112,0.0,0.0,92,0.00,,---,0.00,VWS V14.01,2013-10-11 06:01:00,
2013-10-11 01:06:00,46.8,44.6,29.97,ESE,113,0.0,0.0,92,0.00,,---,0.00,VWS V14.01,2013-10-11 06:06:00,
2013-10-11 01:11:00,46.4,44.2,29.97,ESE,113,0.0,0.0,92,0.00,,---,0.00,VWS V14.01,2013-10-11 06:11:00,
2013-10-11 01:16:00,46.0,43.8,29.97,ESE,113,0.0,0.0,92,0.00,,---,0.00,VWS V14.01,2013-10-11 06:16:00,
2013-10-11 01:21:00,45.6,43.4,29.97,ESE,113,0.0,0.0,92,0.00,,---,0.00,VWS V14.01,2013-10-11 06:21:00,
2013-10-11 01:26:00,45.5,43.9,29.97,ESE,113,0.0,0.0,94,0.00,,---,0.00,VWS V14.01,2013-10-11 06:26:00,
2013-10-11 01:31:00,45.2,43.6,29.97,ESE,113,0.0,0.0,94,0.00,,---,0.00,VWS V14.01,2013-10-11 06:31:00,
2013-10-11 01:36:00,44.9,43.3,29.97,ESE,113,0.0,0.0,94,0.00,,---,0.00,VWS V14.01,2013-10-11 06:36:00,
2013-10-11 01:41:00,44.8,43.5,29.97,ESE,113,0.0,0.0,95,0.00,,---,0.00,VWS V14.01,2013-10-11 06:41:00,
2013-10-11 01:46:00,44.9,43.6,29.97,ESE,112,0.0,0.0,95,0.00,,---,0.00,VWS V14.01,2013-10-11 06:46:00,
2013-10-11 01:51:00,44.9,43.8,29.97,ESE,113,0.0,0.0,96,0.00,,---,0.00,VWS V14.01,2013-10-11 06:51:00,
2013-10-11 01:56:00,44.8,43.7,29.97,ESE,113,0.0,0.0,96,0.00,,---,0.00,VWS V14.01,2013-10-11 06:56:00,
2013-10-11 02:01:00,44.5,43.2,29.97,ESE,113,0.0,0.0,95,0.00,,---,0.00,VWS V14.01,2013-10-11 07:01:00,
2013-10-11 02:07:00,44.3,43.0,29.97,ESE,113,0.0,0.0,95,0.00,,---,0.00,VWS V14.01,2013-10-11 07:07:00,
2013-10-11 02:12:00,44.0,42.9,29.97,ESE,113,0.0,0.0,96,0.00,,---,0.00,VWS V14.01,2013-10-11 07:12:00,
2013-10-11 02:17:00,43.9,42.8,29.97,ESE,113,0.0,0.0,96,0.00,,---,0.00,VWS V14.01,2013-10-11 07:17:00,
2013-10-11 02:22:00,43.9,42.8,29.97,ESE,113,0.0,0.0,96,0.00,,---,0.00,VWS V14.01,2013-10-11 07:22:00,
2013-10-11 02:27:00,44.1,43.3,29.97,ESE,113,0.0,0.0,97,0.00,,---,0.00,VWS V14.01,2013-10-11 07:27:00,
2013-10-11 02:32:00,44.2,43.4,29.97,ESE,111,0.0,0.0,97,0.00,,---,0.00,VWS V14.01,2013-10-11 07:32:00,
2013-10-11 02:37:00,44.1,43.3,29.97,ESE,113,0.0,0.0,97,0.00,,---,0.00,VWS V14.01,2013-10-11 07:37:00,
2013-10-11 02:42:00,44.0,43.2,29.97,ESE,113,0.0,0.0,97,0.00,,---,0.00,VWS V14.01,2013-10-11 07:42:00,
2013-10-11 02:47:00,43.8,43.0,29.97,ESE,113,0.0,0.0,97,0.00,,---,0.00,VWS V14.01,2013-10-11 07:47:00,
2013-10-11 02:52:00,43.5,42.4,29.97,ESE,113,0.0,0.0,96,0.00,,---,0.00,VWS V14.01,2013-10-11 07:52:00,
2013-10-11 02:57:00,43.3,42.2,29.97,ESE,113,0.0,0.0,96,0.00,,---,0.00,VWS V14.01,2013-10-11 07:57:00,
2013-10-11 03:02:00,43.2,42.1,29.97,ESE,113,0.0,0.0,96,0.00,,---,0.00,VWS V14.01,2013-10-11 08:02:00,
2013-10-11 03:07:00,43.3,42.5,29.97,ESE,113,0.0,0.0,97,0.00,,---,0.00,VWS V14.01,2013-10-11 08:07:00,
2013-10-11 03:12:00,43.3,42.5,29.97,ESE,113,0.0,0.0,97,0.00,,---,0.00,VWS V14.01,2013-10-11 08:12:00,
2013-10-11 03:17:00,43.2,42.4,29.96,ESE,113,0.0,0.0,97,0.00,,---,0.00,VWS V14.01,2013-10-11 08:17:00,
2013-10-11 03:22:00,43.4,42.6,29.96,ESE,113,0.0,0.0,97,0.00,,---,0.00,VWS V14.01,2013-10-11 08:22:00,
2013-10-11 03:27:00,43.7,42.9,29.96,ESE,113,0.0,0.0,97,0.00,,---,0.00,VWS V14.01,2013-10-11 08:27:00,
2013-10-11 03:32:00,44.0,43.5,29.97,ESE,113,0.0,0.0,98,0.00,,---,0.00,VWS V14.01,2013-10-11 08:32:00,
2013-10-11 03:37:00,44.4,43.9,29.97,ESE,113,0.0,0.0,98,0.00,,---,0.00,VWS V14.01,2013-10-11 08:37:00,
2013-10-11 03:42:00,44.3,43.8,29.97,ESE,113,0.0,0.0,98,0.00,,---,0.00,VWS V14.01,2013-10-11 08:42:00,
2013-10-11 03:47:00,43.9,43.4,29.98,ESE,113,0.0,0.0,98,0.00,,---,0.00,VWS V14.01,2013-10-11 08:47:00,
2013-10-11 03:52:00,43.8,43.0,29.98,ESE,113,0.0,0.0,97,0.00,,---,0.00,VWS V14.01,2013-10-11 08:52:00,
2013-10-11 03:57:00,43.6,42.8,29.98,ESE,113,0.0,0.0,97,0.00,,---,0.00,VWS V14.01,2013-10-11 08:57:00,
2013-10-11 04:02:00,43.4,42.6,29.98,ESE,113,0.0,0.0,97,0.00,,---,0.00,VWS V14.01,2013-10-11 09:02:00,
2013-10-11 04:07:00,43.1,42.3,29.98,ESE,113,0.0,0.0,97,0.00,,---,0.00,VWS V14.01,2013-10-11 09:07:00,
2013-10-11 04:12:00,42.9,42.1,29.98,ESE,113,0.0,0.0,97,0.00,,---,0.00,VWS V14.01,2013-10-11 09:12:00,
2013-10-11 04:17:00,42.8,42.0,29.98,ESE,113,0.0,0.0,97,0.00,,---,0.00,VWS V14.01,2013-10-11 09:17:00,
2013-10-11 04:22:00,42.7,41.9,29.98,ESE,113,0.0,0.0,97,0.00,,---,0.00,VWS V14.01,2013-10-11 09:22:00,
2013-10-11 04:28:00,42.4,41.6,29.98,ESE,113,0.0,0.0,97,0.00,,---,0.00,VWS V14.01,2013-10-11 09:28:00,
2013-10-11 04:33:00,42.3,41.5,29.98,ESE,113,0.0,0.0,97,0.00,,---,0.00,VWS V14.01,2013-10-11 09:33:00,
2013-10-11 04:38:00,42.3,41.5,29.98,ESE,113,0.0,0.0,97,0.00,,---,0.00,VWS V14.01,2013-10-11 09:38:00,
2013-10-11 04:43:00,42.1,41.3,29.98,ESE,113,0.0,0.0,97,0.00,,---,0.00,VWS V14.01,2013-10-11 09:43:00,
2013-10-11 04:48:00,41.9,41.1,29.98,ESE,113,0.0,0.0,97,0.00,,---,0.00,VWS V14.01,2013-10-11 09:48:00,
2013-10-11 04:53:00,41.9,41.1,29.98,ESE,113,0.0,0.0,97,0.00,,---,0.00,VWS V14.01,2013-10-11 09:53:00,
2013-10-11 04:58:00,41.9,41.1,29.98,ESE,113,0.0,0.0,97,0.00,,---,0.00,VWS V14.01,2013-10-11 09:58:00,
2013-10-11 05:03:00,41.9,41.1,29.98,ESE,113,0.0,0.0,97,0.00,,---,0.00,VWS V14.01,2013-10-11 10:03:00,
2013-10-11 05:08:00,41.7,40.9,29.98,ESE,113,0.0,0.0,97,0.00,,---,0.00,VWS V14.01,2013-10-11 10:08:00,
2013-10-11 05:13:00,41.5,40.7,29.98,ESE,113,0.0,0.0,97,0.00,,---,0.00,VWS V14.01,2013-10-11 10:13:00,
2013-10-11 05:18:00,41.3,40.5,29.98,ESE,113,0.0,0.0,97,0.00,,---,0.00,VWS V14.01,2013-10-11 10:18:00,
2013-10-11 05:23:00,41.0,40.2,29.98,ESE,113,0.0,0.0,97,0.00,,---,0.00,VWS V14.01,2013-10-11 10:23:00,
2013-10-11 05:28:00,40.9,40.1,29.98,ESE,113,0.0,0.0,97,0.00,,---,0.00,VWS V14.01,2013-10-11 10:28:00,
2013-10-11 05:33:00,40.9,40.1,29.98,ESE,113,0.0,0.0,97,0.00,,---,0.00,VWS V14.01,2013-10-11 10:33:00,
2013-10-11 05:38:00,41.3,40.5,29.98,ESE,113,0.0,0.0,97,0.00,,---,0.00,VWS V14.01,2013-10-11 10:38:00,
2013-10-11 05:43:00,41.5,41.0,29.98,ESE,113,0.0,0.0,98,0.00,,---,0.00,VWS V14.01,2013-10-11 10:43:00,
2013-10-11 05:48:00,41.7,41.2,29.98,ESE,113,0.0,0.0,98,0.00,,---,0.00,VWS V14.01,2013-10-11 10:48:00,
2013-10-11 05:53:00,41.7,41.2,29.98,ESE,113,0.0,0.0,98,0.00,,---,0.00,VWS V14.01,2013-10-11 10:53:00,
2013-10-11 05:58:00,41.7,41.2,29.98,ESE,113,0.0,0.0,98,0.00,,---,0.00,VWS V14.01,2013-10-11 10:58:00,
2013-10-11 06:03:00,41.6,41.1,29.98,ESE,113,0.0,0.0,98,0.00,,---,0.00,VWS V14.01,2013-10-11 11:03:00,
2013-10-11 06:08:00,41.5,41.0,29.98,ESE,113,0.0,0.0,98,0.00,,---,0.00,VWS V14.01,2013-10-11 11:08:00,
2013-10-11 06:13:00,41.5,41.0,29.98,ESE,113,0.0,0.0,98,0.00,,---,0.00,VWS V14.01,2013-10-11 11:13:00,
2013-10-11 06:18:00,41.3,40.8,29.98,ESE,113,0.0,0.0,98,0.00,,---,0.00,VWS V14.01,2013-10-11 11:18:00,
2013-10-11 06:23:00,41.3,40.8,29.98,ESE,113,0.0,0.0,98,0.00,,---,0.00,VWS V14.01,2013-10-11 11:23:00,
2013-10-11 06:28:00,41.6,41.1,29.98,ESE,113,0.0,0.0,98,0.00,,---,0.00,VWS V14.01,2013-10-11 11:28:00,
2013-10-11 06:33:00,41.7,41.2,29.98,ESE,113,0.0,0.0,98,0.00,,---,0.00,VWS V14.01,2013-10-11 11:33:00,
2013-10-11 06:38:00,41.7,41.2,29.98,ESE,113,0.0,0.0,98,0.00,,---,0.00,VWS V14.01,2013-10-11 11:38:00,
2013-10-11 06:44:00,41.5,41.0,29.98,ESE,113,0.0,0.0,98,0.00,,---,0.00,VWS V14.01,2013-10-11 11:44:00,
2013-10-11 06:49:00,41.2,40.7,29.97,ESE,113,0.0,0.0,98,0.00,,---,0.00,VWS V14.01,2013-10-11 11:49:00,
2013-10-11 06:54:00,41.1,40.6,29.97,ESE,113,0.0,0.0,98,0.00,,---,0.00,VWS V14.01,2013-10-11 11:54:00,
2013-10-11 06:59:00,41.1,40.6,29.97,ESE,113,0.0,0.0,98,0.00,,---,0.00,VWS V14.01,2013-10-11 11:59:00,
2013-10-11 07:04:00,41.0,40.5,29.97,ESE,113,0.0,0.0,98,0.00,,---,0.00,VWS V14.01,2013-10-11 12:04:00,
2013-10-11 07:09:00,41.0,40.5,29.97,ESE,113,0.0,0.0,98,0.00,,---,0.00,VWS V14.01,2013-10-11 12:09:00,
2013-10-11 07:14:00,41.2,40.7,29.97,ESE,113,0.0,0.0,98,0.00,,---,0.00,VWS V14.01,2013-10-11 12:14:00,
2013-10-11 07:19:00,41.4,40.9,29.97,ESE,113,0.0,0.0,98,0.00,,---,0.00,VWS V14.01,2013-10-11 12:19:00,
2013-10-11 07:24:00,41.3,40.8,29.97,ESE,113,0.0,0.0,98,0.00,,---,0.00,VWS V14.01,2013-10-11 12:24:00,
2013-10-11 07:29:00,41.1,40.6,29.97,ESE,113,0.0,0.0,98,0.00,,---,0.00,VWS V14.01,2013-10-11 12:29:00,
2013-10-11 07:34:00,41.1,40.6,29.96,ESE,113,0.0,0.0,98,0.00,,---,0.00,VWS V14.01,2013-10-11 12:34:00,
2013-10-11 07:39:00,41.2,40.7,29.96,ESE,113,0.0,0.0,98,0.00,,---,0.00,VWS V14.01,2013-10-11 12:39:00,
2013-10-11 07:44:00,41.6,41.1,29.96,ESE,113,0.0,0.0,98,0.00,,---,0.00,VWS V14.01,2013-10-11 12:44:00,
2013-10-11 07:49:00,42.3,41.8,29.96,ESE,113,0.0,0.0,98,0.00,,---,0.00,VWS V14.01,2013-10-11 12:49:00,
2013-10-11 07:54:00,43.5,43.0,29.96,ESE,122,0.0,0.0,98,0.00,,---,0.00,VWS V14.01,2013-10-11 12:54:00,
2013-10-11 07:59:00,43.9,43.4,29.97,ESE,122,0.0,0.0,98,0.00,,---,0.00,VWS V14.01,2013-10-11 12:59:00,
2013-10-11 08:04:00,45.1,44.8,29.97,ESE,117,0.0,0.0,99,0.00,,---,0.00,VWS V14.01,2013-10-11 13:04:00,
2013-10-11 08:09:00,46.7,46.4,29.97,ESE,119,0.0,0.0,99,0.00,,---,0.00,VWS V14.01,2013-10-11 13:09:00,
2013-10-11 08:15:00,47.4,47.1,29.97,ESE,117,0.0,0.0,99,0.00,,---,0.00,VWS V14.01,2013-10-11 13:15:00,
2013-10-11 08:20:00,47.9,47.6,29.97,ESE,108,0.0,0.0,99,0.00,,---,0.00,VWS V14.01,2013-10-11 13:20:00,
2013-10-11 08:25:00,48.3,48.0,29.97,ESE,111,0.0,0.0,99,0.00,,---,0.00,VWS V14.01,2013-10-11 13:25:00,
2013-10-11 08:30:00,48.6,48.3,29.97,ESE,123,0.0,0.0,99,0.00,,---,0.00,VWS V14.01,2013-10-11 13:30:00,
2013-10-11 08:35:00,48.9,48.6,29.97,ESE,120,0.0,0.0,99,0.00,,---,0.00,VWS V14.01,2013-10-11 13:35:00,
2013-10-11 08:40:00,49.1,48.8,29.97,ESE,105,2.0,3.0,99,0.00,,---,0.00,VWS V14.01,2013-10-11 13:40:00,
2013-10-11 08:45:00,49.5,49.0,29.96,ESE,123,2.0,3.0,98,0.00,,---,0.00,VWS V14.01,2013-10-11 13:45:00,
2013-10-11 08:50:00,49.8,49.0,29.96,ESE,119,2.0,3.0,97,0.00,,---,0.00,VWS V14.01,2013-10-11 13:50:00,
2013-10-11 08:55:00,50.1,49.0,29.96,ESE,104,2.0,3.0,96,0.00,,---,0.00,VWS V14.01,2013-10-11 13:55:00,
2013-10-11 09:00:00,50.4,49.0,29.95,ESE,113,2.0,3.0,95,0.00,,---,0.00,VWS V14.01,2013-10-11 14:00:00,
2013-10-11 09:05:00,50.6,49.2,29.95,ESE,121,1.0,3.0,95,0.00,,---,0.00,VWS V14.01,2013-10-11 14:05:00,
2013-10-11 09:10:00,50.8,49.4,29.95,ESE,121,2.0,3.0,95,0.00,,---,0.00,VWS V14.01,2013-10-11 14:10:00,
2013-10-11 09:15:00,51.1,49.4,29.96,ESE,103,2.0,3.0,94,0.00,,---,0.00,VWS V14.01,2013-10-11 14:15:00,
2013-10-11 09:20:00,51.4,49.7,29.96,ESE,112,2.0,3.0,94,0.00,,---,0.00,VWS V14.01,2013-10-11 14:20:00,
2013-10-11 09:25:00,51.8,49.8,29.96,SE,133,2.0,3.0,93,0.00,,---,0.00,VWS V14.01,2013-10-11 14:25:00,
2013-10-11 09:30:00,52.1,50.1,29.96,ESE,120,2.0,3.0,93,0.00,,---,0.00,VWS V14.01,2013-10-11 14:30:00,
2013-10-11 09:35:00,52.4,50.2,29.96,SE,128,1.0,4.0,92,0.00,,---,0.00,VWS V14.01,2013-10-11 14:35:00,
2013-10-11 09:40:00,52.8,50.5,29.96,ESE,107,2.0,4.0,92,0.00,,---,0.00,VWS V14.01,2013-10-11 14:40:00,
2013-10-11 09:45:00,53.3,51.0,29.96,ESE,119,3.0,4.0,92,0.00,,---,0.00,VWS V14.01,2013-10-11 14:45:00,
2013-10-11 09:50:00,53.9,51.3,29.96,ESE,109,2.0,4.0,91,0.00,,---,0.00,VWS V14.01,2013-10-11 14:50:00,
2013-10-11 09:55:00,54.4,51.5,29.96,SE,132,2.0,4.0,90,0.00,,---,0.00,VWS V14.01,2013-10-11 14:55:00,
2013-10-11 10:00:00,54.8,51.6,29.96,SE,133,0.0,1.0,89,0.00,,---,0.00,VWS V14.01,2013-10-11 15:00:00,
2013-10-11 10:05:00,55.3,52.1,29.96,ESE,109,1.0,2.0,89,0.00,,---,0.00,VWS V14.01,2013-10-11 15:05:00,
2013-10-11 10:11:00,55.7,52.2,29.96,ESE,115,2.0,2.0,88,0.00,,---,0.00,VWS V14.01,2013-10-11 15:11:00,
2013-10-11 10:16:00,56.2,53.0,29.96,ESE,111,2.0,2.0,89,0.00,,---,0.00,VWS V14.01,2013-10-11 15:16:00,
2013-10-11 10:21:00,56.8,53.0,29.96,East,98,2.0,2.0,87,0.00,,---,0.00,VWS V14.01,2013-10-11 15:21:00,
2013-10-11 10:26:00,57.7,53.5,29.96,ESE,111,1.0,2.0,86,0.00,,---,0.00,VWS V14.01,2013-10-11 15:26:00,
2013-10-11 10:31:00,58.4,53.6,29.96,ESE,113,3.0,3.0,84,0.00,,---,0.00,VWS V14.01,2013-10-11 15:31:00,
2013-10-11 10:36:00,59.1,54.0,29.96,East,94,3.0,4.0,83,0.00,,---,0.00,VWS V14.01,2013-10-11 15:36:00,
2013-10-11 10:41:00,59.7,54.2,29.96,ESE,123,0.0,4.0,82,0.00,,---,0.00,VWS V14.01,2013-10-11 15:41:00,
2013-10-11 10:46:00,60.4,54.5,29.95,South,184,2.0,4.0,81,0.00,,---,0.00,VWS V14.01,2013-10-11 15:46:00,
2013-10-11 10:51:00,61.0,54.8,29.95,ESE,118,0.0,4.0,80,0.00,,---,0.00,VWS V14.01,2013-10-11 15:51:00,
2013-10-11 10:56:00,61.4,54.8,29.95,ESE,107,0.0,4.0,79,0.00,,---,0.00,VWS V14.01,2013-10-11 15:56:00,
2013-10-11 11:01:00,61.6,54.7,29.95,ESE,114,0.0,1.0,78,0.00,,---,0.00,VWS V14.01,2013-10-11 16:01:00,
2013-10-11 11:06:00,62.1,55.2,29.95,SE,125,0.0,1.0,78,0.00,,---,0.00,VWS V14.01,2013-10-11 16:06:00,
2013-10-11 11:11:00,62.6,55.3,29.95,ESE,107,2.0,4.0,77,0.00,,---,0.00,VWS V14.01,2013-10-11 16:11:00,
2013-10-11 11:16:00,63.1,55.4,29.95,East,94,3.0,4.0,76,0.00,,---,0.00,VWS V14.01,2013-10-11 16:16:00,
2013-10-11 11:21:00,63.5,55.8,29.95,ESE,111,2.0,4.0,76,0.00,,---,0.00,VWS V14.01,2013-10-11 16:21:00,
2013-10-11 11:26:00,64.0,56.3,29.95,SE,133,2.0,4.0,76,0.00,,---,0.00,VWS V14.01,2013-10-11 16:26:00,
2013-10-11 11:31:00,64.5,56.4,29.94,ESE,109,1.0,3.0,75,0.00,,---,0.00,VWS V14.01,2013-10-11 16:31:00,
2013-10-11 11:36:00,64.6,56.1,29.94,East,91,0.0,4.0,74,0.00,,---,0.00,VWS V14.01,2013-10-11 16:36:00,
2013-10-11 11:41:00,64.8,56.3,29.94,SE,137,2.0,4.0,74,0.00,,---,0.00,VWS V14.01,2013-10-11 16:41:00,
2013-10-11 11:46:00,64.8,56.0,29.93,East,91,2.0,5.0,73,0.00,,---,0.00,VWS V14.01,2013-10-11 16:46:00,
2013-10-11 11:51:00,65.0,56.2,29.93,East,98,3.0,5.0,73,0.00,,---,0.00,VWS V14.01,2013-10-11 16:51:00,
2013-10-11 11:56:00,65.1,56.2,29.93,ESE,113,3.0,5.0,73,0.00,,---,0.00,VWS V14.01,2013-10-11 16:56:00,
2013-10-11 12:02:00,65.2,56.3,29.93,East,90,1.0,5.0,73,0.00,,---,0.00,VWS V14.01,2013-10-11 17:02:00,
2013-10-11 12:07:00,65.7,56.4,29.93,ESE,117,3.0,5.0,72,0.00,,---,0.00,VWS V14.01,2013-10-11 17:07:00,
2013-10-11 12:12:00,66.3,57.0,29.93,SSE,155,2.0,5.0,72,0.00,,---,0.00,VWS V14.01,2013-10-11 17:12:00,
2013-10-11 12:17:00,66.9,57.2,29.92,ESE,123,1.0,5.0,71,0.00,,---,0.00,VWS V14.01,2013-10-11 17:17:00,
2013-10-11 12:22:00,67.4,57.3,29.92,SE,134,3.0,5.0,70,0.00,,---,0.00,VWS V14.01,2013-10-11 17:22:00,
2013-10-11 12:27:00,67.5,56.6,29.92,SE,140,3.0,6.0,68,0.00,,---,0.00,VWS V14.01,2013-10-11 17:27:00,
2013-10-11 12:32:00,67.9,57.0,29.91,SE,134,2.0,4.0,68,0.00,,---,0.00,VWS V14.01,2013-10-11 17:32:00,
2013-10-11 12:37:00,68.4,57.4,29.91,ESE,123,4.0,5.0,68,0.00,,---,0.00,VWS V14.01,2013-10-11 17:37:00,
2013-10-11 12:42:00,69.2,56.5,29.91,ESE,114,4.0,6.0,64,0.00,,---,0.00,VWS V14.01,2013-10-11 17:42:00,
2013-10-11 12:47:00,69.7,56.1,29.90,ESE,123,4.0,8.0,62,0.00,,---,0.00,VWS V14.01,2013-10-11 17:47:00,
2013-10-11 12:52:00,69.8,55.8,29.90,ESE,111,2.0,9.0,61,0.00,,---,0.00,VWS V14.01,2013-10-11 17:52:00,
2013-10-11 12:57:00,70.3,55.8,29.90,ESE,122,5.0,9.0,60,0.00,,---,0.00,VWS V14.01,2013-10-11 17:57:00,
2013-10-11 13:02:00,70.5,55.5,29.90,SE,136,5.0,8.0,59,0.00,,---,0.00,VWS V14.01,2013-10-11 18:02:00,
2013-10-11 13:07:00,70.5,55.5,29.90,SE,134,2.0,8.0,59,0.00,,---,0.00,VWS V14.01,2013-10-11 18:07:00,
2013-10-11 13:12:00,70.5,55.5,29.90,SE,128,2.0,8.0,59,0.00,,---,0.00,VWS V14.01,2013-10-11 18:12:00,
2013-10-11 13:17:00,70.9,55.4,29.88,ESE,117,3.0,9.0,58,0.00,,---,0.00,VWS V14.01,2013-10-11 18:17:00,
2013-10-11 13:22:00,70.8,55.3,29.88,East,86,5.0,9.0,58,0.00,,---,0.00,VWS V14.01,2013-10-11 18:22:00,
2013-10-11 13:27:00,70.4,55.4,29.88,ESE,121,5.0,9.0,59,0.00,,---,0.00,VWS V14.01,2013-10-11 18:27:00,
2013-10-11 13:32:00,70.1,55.1,29.88,SE,133,6.0,7.0,59,0.00,,---,0.00,VWS V14.01,2013-10-11 18:32:00,
2013-10-11 13:37:00,70.1,55.6,29.88,ESE,120,4.0,9.0,60,0.00,,---,0.00,VWS V14.01,2013-10-11 18:37:00,
2013-10-11 13:42:00,70.2,55.2,29.88,ESE,108,5.0,9.0,59,0.00,,---,0.00,VWS V14.01,2013-10-11 18:42:00,
2013-10-11 13:47:00,70.3,55.8,29.87,SE,146,5.0,9.0,60,0.00,,---,0.00,VWS V14.01,2013-10-11 18:47:00,
2013-10-11 13:52:00,69.9,55.8,29.87,East,101,5.0,9.0,61,0.00,,---,0.00,VWS V14.01,2013-10-11 18:52:00,
2013-10-11 13:57:00,70.4,55.4,29.87,ESE,109,4.0,9.0,59,0.00,,---,0.00,VWS V14.01,2013-10-11 18:57:00,
2013-10-11 14:02:00,70.4,55.4,29.86,ESE,110,5.0,5.0,59,0.00,,---,0.00,VWS V14.01,2013-10-11 19:02:00,
2013-10-11 14:07:00,70.2,55.2,29.86,ESE,117,7.0,8.0,59,0.00,,---,0.00,VWS V14.01,2013-10-11 19:07:00,
2013-10-11 14:12:00,70.0,55.0,29.86,SE,140,2.0,9.0,59,0.00,,---,0.00,VWS V14.01,2013-10-11 19:12:00,
2013-10-11 14:18:00,70.6,55.6,29.85,SE,125,4.0,9.0,59,0.00,,---,0.00,VWS V14.01,2013-10-11 19:18:00,
2013-10-11 14:23:00,70.6,55.6,29.85,SE,129,3.0,10.0,59,0.00,,---,0.00,VWS V14.01,2013-10-11 19:23:00,
2013-10-11 14:28:00,70.0,55.0,29.85,SE,133,2.0,10.0,59,0.00,,---,0.00,VWS V14.01,2013-10-11 19:28:00,
2013-10-11 14:33:00,70.0,55.5,29.85,ESE,115,8.0,8.0,60,0.00,,---,0.00,VWS V14.01,2013-10-11 19:33:00,
2013-10-11 14:38:00,69.8,54.8,29.85,SE,134,4.0,10.0,59,0.00,,---,0.00,VWS V14.01,2013-10-11 19:38:00,
2013-10-11 14:43:00,69.6,55.1,29.85,SE,127,3.0,10.0,60,0.00,,---,0.00,VWS V14.01,2013-10-11 19:43:00,
2013-10-11 14:48:00,69.6,55.1,29.84,SE,127,5.0,11.0,60,0.00,,---,0.00,VWS V14.01,2013-10-11 19:48:00,
2013-10-11 14:53:00,69.5,55.0,29.84,ESE,111,4.0,11.0,60,0.00,,---,0.00,VWS V14.01,2013-10-11 19:53:00,
2013-10-11 14:58:00,69.5,55.5,29.84,SSE,156,5.0,11.0,61,0.00,,---,0.00,VWS V14.01,2013-10-11 19:58:00,
2013-10-11 15:03:00,69.2,55.2,29.84,SE,141,2.0,9.0,61,0.00,,---,0.00,VWS V14.01,2013-10-11 20:03:00,
2013-10-11 15:08:00,69.1,55.1,29.84,South,178,3.0,9.0,61,0.00,,---,0.00,VWS V14.01,2013-10-11 20:08:00,
2013-10-11 15:13:00,69.2,55.6,29.84,ESE,103,5.0,9.0,62,0.00,,---,0.00,VWS V14.01,2013-10-11 20:13:00,
2013-10-11 15:18:00,69.6,55.6,29.83,SSE,164,3.0,9.0,61,0.00,,---,0.00,VWS V14.01,2013-10-11 20:18:00,
2013-10-11 15:23:00,69.9,55.4,29.83,SE,138,3.0,10.0,60,0.00,,---,0.00,VWS V14.01,2013-10-11 20:23:00,
2013-10-11 15:28:00,69.8,55.8,29.83,ESE,105,7.0,10.0,61,0.00,,---,0.00,VWS V14.01,2013-10-11 20:28:00,
2013-10-11 15:33:00,69.5,55.5,29.83,SSW,192,6.0,9.0,61,0.00,,---,0.00,VWS V14.01,2013-10-11 20:33:00,
2013-10-11 15:38:00,69.4,55.4,29.83,ESE,118,7.0,10.0,61,0.00,,---,0.00,VWS V14.01,2013-10-11 20:38:00,
2013-10-11 15:43:00,69.0,55.5,29.83,ESE,123,4.0,10.0,62,0.00,,---,0.00,VWS V14.01,2013-10-11 20:43:00,
2013-10-11 15:48:00,69.0,55.9,29.82,ESE,105,3.0,10.0,63,0.00,,---,0.00,VWS V14.01,2013-10-11 20:48:00,
2013-10-11 15:53:00,69.5,56.4,29.82,ESE,121,4.0,10.0,63,0.00,,---,0.00,VWS V14.01,2013-10-11 20:53:00,
2013-10-11 15:58:00,69.7,55.7,29.82,East,99,3.0,10.0,61,0.00,,---,0.00,VWS V14.01,2013-10-11 20:58:00,
2013-10-11 16:03:00,69.2,56.1,29.82,East,96,6.0,7.0,63,0.00,,---,0.00,VWS V14.01,2013-10-11 21:03:00,
2013-10-11 16:08:00,68.5,55.4,29.82,SE,126,5.0,8.0,63,0.00,,---,0.00,VWS V14.01,2013-10-11 21:08:00,
2013-10-11 16:13:00,68.1,55.5,29.82,SE,146,4.0,8.0,64,0.00,,---,0.00,VWS V14.01,2013-10-11 21:13:00,
2013-10-11 16:18:00,68.0,55.4,29.82,SE,136,3.0,9.0,64,0.00,,---,0.00,VWS V14.01,2013-10-11 21:18:00,
2013-10-11 16:24:00,68.2,55.6,29.82,ESE,111,3.0,9.0,64,0.00,,---,0.00,VWS V14.01,2013-10-11 21:24:00,
2013-10-11 16:29:00,68.4,55.8,29.82,ESE,104,4.0,9.0,64,0.00,,---,0.00,VWS V14.01,2013-10-11 21:29:00,
2013-10-11 16:34:00,68.4,55.8,29.82,SE,131,3.0,6.0,64,0.00,,---,0.00,VWS V14.01,2013-10-11 21:34:00,
2013-10-11 16:39:00,68.4,55.8,29.82,SE,131,2.0,8.0,64,0.00,,---,0.00,VWS V14.01,2013-10-11 21:39:00,
2013-10-11 16:44:00,68.3,55.7,29.82,SE,128,3.0,8.0,64,0.00,,---,0.00,VWS V14.01,2013-10-11 21:44:00,
2013-10-11 16:49:00,68.4,55.8,29.82,ESE,106,8.0,8.0,64,0.00,,---,0.00,VWS V14.01,2013-10-11 21:49:00,
2013-10-11 16:54:00,68.3,55.2,29.82,ESE,113,4.0,8.0,63,0.00,,---,0.00,VWS V14.01,2013-10-11 21:54:00,
2013-10-11 16:59:00,68.1,54.6,29.82,ESE,118,3.0,8.0,62,0.00,,---,0.00,VWS V14.01,2013-10-11 21:59:00,
2013-10-11 17:04:00,68.0,54.5,29.81,SE,146,2.0,6.0,62,0.00,,---,0.00,VWS V14.01,2013-10-11 22:04:00,
2013-10-11 17:09:00,68.0,55.0,29.81,East,100,5.0,7.0,63,0.00,,---,0.00,VWS V14.01,2013-10-11 22:09:00,
2013-10-11 17:14:00,67.9,55.3,29.81,ESE,113,3.0,7.0,64,0.00,,---,0.00,VWS V14.01,2013-10-11 22:14:00,
2013-10-11 17:19:00,67.8,55.2,29.81,ESE,112,5.0,7.0,64,0.00,,---,0.00,VWS V14.01,2013-10-11 22:19:00,
2013-10-11 17:24:00,67.7,55.1,29.81,ESE,110,2.0,7.0,64,0.00,,---,0.00,VWS V14.01,2013-10-11 22:24:00,
2013-10-11 17:29:00,67.5,54.9,29.81,East,92,5.0,9.0,64,0.00,,---,0.00,VWS V14.01,2013-10-11 22:29:00,
2013-10-11 17:34:00,67.4,54.8,29.81,ESE,107,4.0,6.0,64,0.00,,---,0.00,VWS V14.01,2013-10-11 22:34:00,
2013-10-11 17:39:00,67.2,55.0,29.81,SE,133,3.0,6.0,65,0.00,,---,0.00,VWS V14.01,2013-10-11 22:39:00,
2013-10-11 17:44:00,66.9,54.8,29.81,SE,125,3.0,6.0,65,0.00,,---,0.00,VWS V14.01,2013-10-11 22:44:00,
2013-10-11 17:50:00,66.8,55.1,29.81,ESE,116,7.0,7.0,66,0.00,,---,0.00,VWS V14.01,2013-10-11 22:50:00,
2013-10-11 17:55:00,66.6,54.9,29.81,ESE,113,4.0,7.0,66,0.00,,---,0.00,VWS V14.01,2013-10-11 22:55:00,
2013-10-11 18:00:00,66.4,54.7,29.81,ESE,111,3.0,7.0,66,0.00,,---,0.00,VWS V14.01,2013-10-11 23:00:00,
2013-10-11 18:05:00,66.2,54.9,29.81,SE,125,3.0,4.0,67,0.00,,---,0.00,VWS V14.01,2013-10-11 23:05:00,
2013-10-11 18:10:00,65.8,55.0,29.81,ESE,119,3.0,5.0,68,0.00,,---,0.00,VWS V14.01,2013-10-11 23:10:00,
2013-10-11 18:15:00,65.6,55.2,29.81,ESE,117,5.0,7.0,69,0.00,,---,0.00,VWS V14.01,2013-10-11 23:15:00,
2013-10-11 18:20:00,65.4,55.8,29.81,SE,130,2.0,7.0,71,0.00,,---,0.00,VWS V14.01,2013-10-11 23:20:00,
2013-10-11 18:25:00,65.2,56.0,29.81,ESE,103,5.0,7.0,72,0.00,,---,0.00,VWS V14.01,2013-10-11 23:25:00,
2013-10-11 18:30:00,65.1,56.2,29.81,ESE,108,3.0,8.0,73,0.00,,---,0.00,VWS V14.01,2013-10-11 23:30:00,
2013-10-11 18:35:00,65.0,56.5,29.81,SE,125,3.0,5.0,74,0.00,,---,0.00,VWS V14.01,2013-10-11 23:35:00,
2013-10-11 18:40:00,64.6,56.5,29.81,ESE,123,4.0,5.0,75,0.00,,---,0.00,VWS V14.01,2013-10-11 23:40:00,
2013-10-11 18:45:00,64.4,56.3,29.81,ESE,122,2.0,6.0,75,0.00,,---,0.00,VWS V14.01,2013-10-11 23:45:00,
2013-10-11 18:50:00,64.3,56.6,29.81,ESE,113,3.0,7.0,76,0.00,,---,0.00,VWS V14.01,2013-10-11 23:50:00,
2013-10-11 18:55:00,64.1,56.4,29.81,ESE,108,3.0,7.0,76,0.00,,---,0.00,VWS V14.01,2013-10-11 23:55:00,
2013-10-11 19:00:00,63.9,56.2,29.81,ESE,117,3.0,4.0,76,0.00,,---,0.00,VWS V14.01,2013-10-12 00:00:00,
2013-10-11 19:05:00,63.7,56.0,29.81,SE,136,2.0,5.0,76,0.00,,---,0.00,VWS V14.01,2013-10-12 00:05:00,
2013-10-11 19:10:00,63.4,56.1,29.81,ESE,113,2.0,7.0,77,0.00,,---,0.00,VWS V14.01,2013-10-12 00:10:00,
2013-10-11 19:16:00,63.3,56.0,29.82,ESE,123,4.0,7.0,77,0.00,,---,0.00,VWS V14.01,2013-10-12 00:16:00,
2013-10-11 19:21:00,63.2,55.9,29.82,ESE,106,2.0,7.0,77,0.00,,---,0.00,VWS V14.01,2013-10-12 00:21:00,
2013-10-11 19:26:00,63.2,55.9,29.82,ESE,107,4.0,7.0,77,0.00,,---,0.00,VWS V14.01,2013-10-12 00:26:00,
2013-10-11 19:31:00,63.1,55.8,29.82,SE,128,3.0,5.0,77,0.00,,---,0.00,VWS V14.01,2013-10-12 00:31:00,
2013-10-11 19:36:00,62.9,55.6,29.82,ESE,105,3.0,7.0,77,0.00,,---,0.00,VWS V14.01,2013-10-12 00:36:00,
2013-10-11 19:41:00,62.5,55.6,29.82,ESE,110,7.0,7.0,78,0.00,,---,0.00,VWS V14.01,2013-10-12 00:41:00,
2013-10-11 19:46:00,62.3,55.4,29.82,SSE,153,1.0,8.0,78,0.00,,---,0.00,VWS V14.01,2013-10-12 00:46:00,
2013-10-11 19:51:00,62.2,55.3,29.82,ESE,109,4.0,8.0,78,0.00,,---,0.00,VWS V14.01,2013-10-12 00:51:00,
2013-10-11 19:56:00,62.0,55.1,29.82,ESE,116,5.0,9.0,78,0.00,,---,0.00,VWS V14.01,2013-10-12 00:56:00,
2013-10-11 20:01:00,62.0,55.1,29.82,ESE,123,5.0,5.0,78,0.00,,---,0.00,VWS V14.01,2013-10-12 01:01:00,
2013-10-11 20:06:00,61.8,54.9,29.82,ESE,111,4.0,6.0,78,0.00,,---,0.00,VWS V14.01,2013-10-12 01:06:00,
2013-10-11 20:11:00,61.7,54.8,29.82,ESE,118,4.0,6.0,78,0.00,,---,0.00,VWS V14.01,2013-10-12 01:11:00,
2013-10-11 20:16:00,61.6,54.7,29.83,SSW,209,4.0,6.0,78,0.00,,---,0.00,VWS V14.01,2013-10-12 01:16:00,
2013-10-11 20:21:00,61.6,54.7,29.83,SE,126,3.0,10.0,78,0.00,,---,0.00,VWS V14.01,2013-10-12 01:21:00,
2013-10-11 20:27:00,61.6,54.7,29.83,SE,132,3.0,10.0,78,0.00,,---,0.00,VWS V14.01,2013-10-12 01:27:00,
2013-10-11 20:32:00,61.4,54.5,29.83,SE,125,4.0,7.0,78,0.00,,---,0.00,VWS V14.01,2013-10-12 01:32:00,
2013-10-11 20:37:00,61.4,54.5,29.83,ESE,123,3.0,7.0,78,0.00,,---,0.00,VWS V14.01,2013-10-12 01:37:00,
2013-10-11 20:42:00,61.3,54.4,29.83,ESE,113,7.0,9.0,78,0.00,,---,0.00,VWS V14.01,2013-10-12 01:42:00,
2013-10-11 20:47:00,61.3,54.0,29.83,ESE,107,3.0,9.0,77,0.00,,---,0.00,VWS V14.01,2013-10-12 01:47:00,
2013-10-11 20:52:00,61.2,53.9,29.83,ESE,105,4.0,9.0,77,0.00,,---,0.00,VWS V14.01,2013-10-12 01:52:00,
2013-10-11 20:57:00,61.0,53.8,29.83,ESE,123,4.0,9.0,77,0.00,,---,0.00,VWS V14.01,2013-10-12 01:57:00,
2013-10-11 21:02:00,60.9,53.7,29.83,SE,136,4.0,5.0,77,0.00,,---,0.00,VWS V14.01,2013-10-12 02:02:00,
2013-10-11 21:07:00,60.9,53.7,29.83,SSE,167,4.0,5.0,77,0.00,,---,0.00,VWS V14.01,2013-10-12 02:07:00,
2013-10-11 21:12:00,60.7,53.5,29.83,SE,128,3.0,7.0,77,0.00,,---,0.00,VWS V14.01,2013-10-12 02:12:00,
2013-10-11 21:17:00,60.7,53.5,29.82,SSE,148,2.0,8.0,77,0.00,,---,0.00,VWS V14.01,2013-10-12 02:17:00,
2013-10-11 21:22:00,60.6,53.4,29.82,ESE,111,3.0,8.0,77,0.00,,---,0.00,VWS V14.01,2013-10-12 02:22:00,
2013-10-11 21:27:00,60.4,53.2,29.82,ESE,113,2.0,8.0,77,0.00,,---,0.00,VWS V14.01,2013-10-12 02:27:00,
2013-10-11 21:32:00,60.3,53.1,29.82,ESE,113,3.0,5.0,77,0.00,,---,0.00,VWS V14.01,2013-10-12 02:32:00,
2013-10-11 21:37:00,60.3,53.1,29.82,SE,142,3.0,7.0,77,0.00,,---,0.00,VWS V14.01,2013-10-12 02:37:00,
2013-10-11 21:42:00,60.3,52.7,29.82,ESE,121,3.0,8.0,76,0.00,,---,0.00,VWS V14.01,2013-10-12 02:42:00,
2013-10-11 21:47:00,60.1,52.5,29.82,SE,135,5.0,9.0,76,0.00,,---,0.00,VWS V14.01,2013-10-12 02:47:00,
2013-10-11 21:52:00,60.2,52.6,29.82,ESE,102,3.0,9.0,76,0.00,,---,0.00,VWS V14.01,2013-10-12 02:52:00,
2013-10-11 21:58:00,60.0,52.4,29.82,East,95,2.0,9.0,76,0.00,,---,0.00,VWS V14.01,2013-10-12 02:58:00,
2013-10-11 22:03:00,60.0,52.4,29.81,SE,144,2.0,5.0,76,0.00,,---,0.00,VWS V14.01,2013-10-12 03:03:00,
2013-10-11 22:08:00,59.9,52.3,29.81,ESE,113,5.0,8.0,76,0.00,,---,0.00,VWS V14.01,2013-10-12 03:08:00,
2013-10-11 22:13:00,59.8,52.2,29.81,ESE,123,4.0,8.0,76,0.00,,---,0.00,VWS V14.01,2013-10-12 03:13:00,
2013-10-11 22:18:00,59.8,52.2,29.80,South,175,4.0,8.0,76,0.00,,---,0.00,VWS V14.01,2013-10-12 03:18:00,
2013-10-11 22:23:00,59.9,52.3,29.80,ESE,110,5.0,8.0,76,0.00,,---,0.00,VWS V14.01,2013-10-12 03:23:00,
2013-10-11 22:28:00,59.8,52.2,29.80,ESE,117,5.0,8.0,76,0.00,,---,0.00,VWS V14.01,2013-10-12 03:28:00,
2013-10-11 22:33:00,59.7,52.1,29.81,SE,125,4.0,6.0,76,0.00,,---,0.00,VWS V14.01,2013-10-12 03:33:00,
2013-10-11 22:38:00,59.6,51.7,29.81,SE,126,4.0,7.0,75,0.00,,---,0.00,VWS V14.01,2013-10-12 03:38:00,
2013-10-11 22:43:00,59.7,51.8,29.81,SE,128,5.0,7.0,75,0.00,,---,0.00,VWS V14.01,2013-10-12 03:43:00,
2013-10-11 22:48:00,59.7,51.8,29.80,ESE,119,2.0,8.0,75,0.00,,---,0.00,VWS V14.01,2013-10-12 03:48:00,
2013-10-11 22:53:00,59.5,51.9,29.80,ESE,110,3.0,8.0,76,0.00,,---,0.00,VWS V14.01,2013-10-12 03:53:00,
2013-10-11 22:58:00,59.4,51.5,29.80,ESE,107,5.0,8.0,75,0.00,,---,0.00,VWS V14.01,2013-10-12 03:58:00,
2013-10-11 23:01:00,59.5,51.6,29.80,SSE,167,4.0,4.0,75,0.00,,---,0.00,VWS V14.01,2013-10-12 04:01:00,
2013-10-11 23:02:00,59.5,51.6,29.80,ESE,103,4.0,4.0,75,0.00,,---,0.00,VWS V14.01,2013-10-12 04:02:00,
2013-10-11 23:04:00,59.3,51.4,29.80,SSE,150,3.0,6.0,75,0.00,,---,0.00,VWS V14.01,2013-10-12 04:04:00,
2013-10-11 23:09:00,59.3,51.4,29.80,SE,128,2.0,6.0,75,0.00,,---,0.00,VWS V14.01,2013-10-12 04:09:00,
2013-10-11 23:14:00,59.4,51.5,29.80,East,80,2.0,6.0,75,0.00,,---,0.00,VWS V14.01,2013-10-12 04:14:00,
2013-10-11 23:19:00,59.5,51.2,29.80,SE,130,2.0,8.0,74,0.00,,---,0.00,VWS V14.01,2013-10-12 04:19:00,
2013-10-11 23:24:00,59.5,51.2,29.80,ESE,123,3.0,8.0,74,0.00,,---,0.00,VWS V14.01,2013-10-12 04:24:00,
2013-10-11 23:29:00,59.6,51.3,29.80,ESE,105,3.0,8.0,74,0.00,,---,0.00,VWS V14.01,2013-10-12 04:29:00,
2013-10-11 23:34:00,59.7,51.4,29.79,ESE,117,5.0,7.0,74,0.00,,---,0.00,VWS V14.01,2013-10-12 04:34:00,
2013-10-11 23:39:00,59.7,51.4,29.79,ESE,123,8.0,8.0,74,0.00,,---,0.00,VWS V14.01,2013-10-12 04:39:00,
2013-10-11 23:44:00,59.9,51.2,29.79,ESE,115,4.0,8.0,73,0.00,,---,0.00,VWS V14.01,2013-10-12 04:44:00,
2013-10-11 23:49:00,59.9,51.2,29.79,SE,138,7.0,9.0,73,0.00,,---,0.00,VWS V14.01,2013-10-12 04:49:00,
2013-10-11 23:54:00,59.9,51.2,29.79,ESE,115,4.0,9.0,73,0.00,,---,0.00,VWS V14.01,2013-10-12 04:54:00,
2013-10-11 23:59:00,59.9,51.2,29.79,ESE,115,4.0,9.0,73,0.00,,---,0.00,VWS V14.01,2013-10-12 04:59:00,